TimeCST,TemperatureF,Dew PointF,Humidity,Sea Level PressureIn,VisibilityMPH,Wind Direction,Wind SpeedMPH,Gust SpeedMPH,PrecipitationIn,Events,Conditions,WindDirDegrees,DateUTC
12:15 AM,37.4,35.6,93,29.29,2.5,NW,6.9,-,0.02,Rain,Light Rain,320,2013-11-17 06:15:00
12:35 AM,37.4,35.6,93,29.29,2.5,NW,9.2,-,0.04,Rain,Light Rain,320,2013-11-17 06:35:00
12:55 AM,37.4,35.6,93,29.30,2.5,NNW,10.4,-,0.07,Rain,Rain,330,2013-11-17 06:55:00
1:15 AM,37.4,35.6,93,29.30,3.0,NNW,11.5,-,0.02,Rain,Rain,340,2013-11-17 07:15:00
1:35 AM,37.4,35.6,93,29.30,4.0,NNW,11.5,-,0.03,Rain,Light Rain,330,2013-11-17 07:35:00
1:55 AM,35.6,35.6,100,29.29,4.0,NNW,11.5,-,0.04,,Drizzle,330,2013-11-17 07:55:00
2:15 AM,35.6,35.6,100,29.30,4.0,NNW,10.4,-,N/A,,Drizzle,330,2013-11-17 08:15:00
2:35 AM,35.6,35.6,100,29.30,5.0,NNW,12.7,18.4,N/A,,Drizzle,340,2013-11-17 08:35:00
2:55 AM,35.6,33.8,93,29.30,5.0,North,13.8,19.6,0.01,Rain,Light Rain,350,2013-11-17 08:55:00
3:15 AM,35.6,33.8,93,29.30,7.0,North,12.7,-,N/A,,Drizzle,350,2013-11-17 09:15:00
3:35 AM,33.8,33.8,100,29.30,7.0,NNW,12.7,-,N/A,,Overcast,330,2013-11-17 09:35:00
3:55 AM,33.8,33.8,100,29.31,10.0,NNW,13.8,-,N/A,,Overcast,340,2013-11-17 09:55:00
4:15 AM,33.8,33.8,100,29.33,7.0,NW,10.4,-,N/A,,Overcast,320,2013-11-17 10:15:00
4:35 AM,33.8,33.8,100,29.33,10.0,NW,12.7,19.6,N/A,,Overcast,320,2013-11-17 10:35:00
4:55 AM,33.8,33.8,100,29.34,7.0,NW,12.7,16.1,N/A,,Overcast,310,2013-11-17 10:55:00
5:15 AM,33.8,33.8,100,29.35,7.0,NW,11.5,-,N/A,,Overcast,310,2013-11-17 11:15:00
5:35 AM,33.8,33.8,100,29.36,7.0,NW,13.8,20.7,N/A,,Drizzle,310,2013-11-17 11:35:00
5:55 AM,33.8,33.8,100,29.37,5.0,NW,11.5,18.4,N/A,,Drizzle,310,2013-11-17 11:55:00
6:15 AM,33.8,32.0,93,29.37,7.0,NW,11.5,-,N/A,,Drizzle,310,2013-11-17 12:15:00
6:35 AM,33.8,33.8,100,29.37,7.0,NW,11.5,-,N/A,,Light Drizzle,310,2013-11-17 12:35:00
6:55 AM,33.8,32.0,93,29.38,7.0,NW,12.7,-,N/A,,Light Drizzle,310,2013-11-17 12:55:00
7:15 AM,33.8,32.0,93,29.38,10.0,NW,12.7,18.4,N/A,,Overcast,310,2013-11-17 13:15:00
7:35 AM,33.8,32.0,93,29.39,10.0,NW,11.5,-,N/A,,Overcast,310,2013-11-17 13:35:00
7:55 AM,32.0,32.0,100,29.40,10.0,NW,6.9,-,N/A,,Overcast,310,2013-11-17 13:55:00
8:15 AM,32.0,32.0,100,29.40,10.0,WNW,10.4,-,N/A,,Overcast,300,2013-11-17 14:15:00
8:35 AM,32.0,30.2,93,29.41,4.0,WNW,11.5,17.3,N/A,,Overcast,300,2013-11-17 14:35:00
8:55 AM,32.0,30.2,93,29.41,3.0,NW,13.8,20.7,N/A,,Overcast,310,2013-11-17 14:55:00
9:15 AM,30.2,30.2,100,29.42,0.5,WNW,10.4,-,N/A,Fog,Light Freezing Fog,290,2013-11-17 15:15:00
9:35 AM,30.2,30.2,100,29.43,0.5,WNW,10.4,-,N/A,Fog,Light Freezing Fog,290,2013-11-17 15:35:00
9:55 AM,30.2,30.2,100,29.44,0.8,WNW,9.2,16.1,N/A,,Overcast,290,2013-11-17 15:55:00
10:15 AM,30.2,30.2,100,29.45,4.0,WNW,15.0,20.7,N/A,,Overcast,290,2013-11-17 16:15:00
10:35 AM,30.2,30.2,100,29.45,2.0,WNW,12.7,-,N/A,,Overcast,300,2013-11-17 16:35:00
10:55 AM,30.2,30.2,100,29.47,1.8,WNW,13.8,19.6,N/A,,Overcast,290,2013-11-17 16:55:00
11:15 AM,30.2,30.2,100,29.48,4.0,WNW,12.7,19.6,N/A,,Overcast,290,2013-11-17 17:15:00
11:35 AM,30.2,28.4,93,29.48,2.0,WNW,18.4,-,N/A,,Overcast,290,2013-11-17 17:35:00
11:55 AM,30.2,28.4,93,29.48,2.0,WNW,17.3,24.2,N/A,Snow,Light Snow,290,2013-11-17 17:55:00
12:15 PM,30.2,28.4,93,29.49,7.0,West,18.4,25.3,N/A,,Overcast,280,2013-11-17 18:15:00
12:35 PM,28.4,28.4,100,29.50,10.0,WNW,19.6,26.5,N/A,,Overcast,290,2013-11-17 18:35:00
12:55 PM,28.4,26.6,93,29.51,7.0,WNW,19.6,25.3,N/A,,Overcast,290,2013-11-17 18:55:00
1:15 PM,28.4,26.6,93,29.52,10.0,West,20.7,24.2,N/A,,Overcast,280,2013-11-17 19:15:00
1:35 PM,28.4,26.6,93,29.52,10.0,WNW,18.4,23.0,N/A,,Overcast,290,2013-11-17 19:35:00
1:55 PM,26.6,26.6,100,29.54,10.0,WNW,20.7,28.8,N/A,,Overcast,290,2013-11-17 19:55:00
2:15 PM,26.6,24.8,93,29.56,10.0,WNW,20.7,27.6,N/A,,Overcast,290,2013-11-17 20:15:00
2:35 PM,26.6,24.8,93,29.56,10.0,WNW,19.6,29.9,N/A,,Overcast,300,2013-11-17 20:35:00
2:55 PM,26.6,24.8,93,29.58,10.0,WNW,19.6,28.8,N/A,,Overcast,300,2013-11-17 20:55:00
3:15 PM,26.6,23.0,86,29.59,10.0,WNW,17.3,27.6,N/A,,Overcast,300,2013-11-17 21:15:00
3:35 PM,26.6,24.8,93,29.61,10.0,WNW,19.6,25.3,N/A,,Overcast,300,2013-11-17 21:35:00
3:55 PM,26.6,21.2,80,29.62,10.0,WNW,19.6,26.5,N/A,,Overcast,300,2013-11-17 21:55:00
4:15 PM,24.8,21.2,86,29.64,10.0,WNW,21.9,27.6,N/A,,Overcast,300,2013-11-17 22:15:00
4:35 PM,24.8,21.2,86,29.65,10.0,NW,17.3,29.9,N/A,,Overcast,310,2013-11-17 22:35:00
4:55 PM,24.8,21.2,86,29.67,10.0,NW,20.7,27.6,N/A,,Overcast,310,2013-11-17 22:55:00
5:15 PM,24.8,21.2,86,29.67,10.0,WNW,18.4,26.5,N/A,,Overcast,300,2013-11-17 23:15:00
5:35 PM,24.8,21.2,86,29.69,10.0,NW,16.1,27.6,N/A,,Overcast,310,2013-11-17 23:35:00
5:55 PM,24.8,21.2,86,29.70,10.0,WNW,16.1,24.2,N/A,,Overcast,300,2013-11-17 23:55:00
6:15 PM,23.0,21.2,93,29.71,10.0,WNW,16.1,27.6,N/A,,Overcast,300,2013-11-18 00:15:00
6:35 PM,23.0,19.4,86,29.72,10.0,WNW,21.9,29.9,N/A,,Overcast,300,2013-11-18 00:35:00
6:55 PM,23.0,19.4,86,29.74,10.0,WNW,18.4,28.8,N/A,,Overcast,290,2013-11-18 00:55:00
7:15 PM,23.0,19.4,86,29.75,10.0,WNW,16.1,28.8,N/A,,Overcast,290,2013-11-18 01:15:00
7:35 PM,23.0,19.4,86,29.76,10.0,WNW,17.3,27.6,N/A,,Overcast,290,2013-11-18 01:35:00
7:55 PM,21.2,17.6,86,29.77,10.0,WNW,20.7,29.9,N/A,,Overcast,300,2013-11-18 01:55:00
8:15 PM,21.2,17.6,86,29.78,10.0,WNW,21.9,28.8,N/A,,Overcast,300,2013-11-18 02:15:00
8:35 PM,21.2,17.6,86,29.79,10.0,WNW,19.6,26.5,N/A,,Overcast,300,2013-11-18 02:35:00
8:55 PM,21.2,17.6,86,29.79,10.0,WNW,18.4,26.5,N/A,,Overcast,300,2013-11-18 02:55:00
9:15 PM,21.2,17.6,86,29.80,10.0,WNW,18.4,26.5,N/A,,Overcast,300,2013-11-18 03:15:00
9:35 PM,21.2,17.6,86,29.81,10.0,WNW,18.4,26.5,N/A,,Overcast,300,2013-11-18 03:35:00
9:55 PM,21.2,17.6,86,29.81,10.0,WNW,15.0,25.3,N/A,,Overcast,300,2013-11-18 03:55:00
10:15 PM,21.2,17.6,86,29.82,10.0,NW,16.1,23.0,N/A,,Overcast,310,2013-11-18 04:15:00
10:35 PM,21.2,17.6,86,29.83,10.0,WNW,15.0,23.0,N/A,,Overcast,290,2013-11-18 04:35:00
10:55 PM,21.2,17.6,86,29.83,10.0,WNW,17.3,24.2,N/A,,Overcast,290,2013-11-18 04:55:00
11:15 PM,21.2,17.6,86,29.84,10.0,WNW,18.4,26.5,N/A,,Overcast,290,2013-11-18 05:15:00
11:35 PM,21.2,17.6,86,29.86,10.0,WNW,16.1,26.5,N/A,,Overcast,290,2013-11-18 05:35:00
11:55 PM,21.2,17.6,86,29.86,10.0,WNW,17.3,21.9,N/A,,Overcast,290,2013-11-18 05:55:00